Location: Arthez
(43.0833°N, 0.2500°W)
Time: 00:58:43
(UTC+00:00)

NOSS 2-3 (D) - Pass Details

Date: 23 October 2021
Orbit: 538 x 1672 km, 63.3° (Epoch: 25 November)

Event Time Altitude Azimuth Distance (km) Brightness Sun altitude
Rises 18:52:31 0° 231° (SW) 2,683 7.6 -20.2°
Reaches altitude 10° 18:54:39 10° 237° (WSW) 1,817 6.7 -20.6°
Maximum altitude 18:58:29 47° 313° (NW) 783 4.3 -21.3°
Enters shadow 19:01:24 19° 20° (NNE) 1,514 5.4 -21.8°
